Weather History for Clinton, IA

Change the Weather History Date:

Monday, July 22, 2013

  Actual Average Record
Temperature  
Mean Temperature 74 °F -  
Max Temperature 86 °F 84 °F 98 °F (1983)
Min Temperature 62 °F 64 °F 51 °F (2000)
Cooling Degree Days 9    
Growing Degree Days 24 (Base 50)    
Moisture  
Dew Point 42 °F    
Average Humidity 37    
Maximum Humidity 55    
Minimum Humidity 6    
Precipitation  
Precipitation 0.19 in - - ()
Sea Level Pressure  
Sea Level Pressure 29.84 in    
Wind  
Wind Speed 6 mph (South)    
Max Wind Speed 26 mph    
Max Gust Speed 51 mph    
Visibility 8 miles    
Events Thunderstorm    
Averages and records for this station are not official NWS values.
T = Trace of Precipitation, MM = Missing Value Source: NWS Daily Summary

Daily Weather History Graph

Daily Weather History Graph

Search for Another Location

Airport:

Trip Planner

Search our weather history database for the weather conditions in past years. The results will help you decide how hot, cold, wet, or windy it might be!

Date:

Astronomy

Jul. 22, 2013 Rise Set
Actual Time 5:45 AM CDT 8:29 PM CDT
Civil Twilight 5:13 AM CDT 9:01 PM CDT
Nautical Twilight 4:32 AM CDT 9:42 PM CDT
Astronomical Twilight 3:45 AM CDT 10:28 PM CDT
Moon 8:13 PM CDT (7/22) 5:43 AM CDT (7/22)
Length of Visible Light 15h 48m
Length of Day
14h 43m
Full, 100% of the Moon is Illuminated
Jul 22
Full
Jul 22
Full
Jul 29
Last Quarter
Aug 6
New
Aug 14
First Quarter

Hourly Weather History & Observations

Time (CDT) Temp. Heat Index Dew Point Humidity Pressure Visibility Wind Dir Wind Speed Gust Speed Precip Events Conditions
12:15 AM 68.0 °F - 37.4 °F 33% 29.92 in 10.0 mi East 6.9 mph - N/A   Scattered Clouds
12:35 AM 66.2 °F - 44.6 °F 46% 29.92 in 10.0 mi East 5.8 mph - N/A   Scattered Clouds
12:55 AM 68.0 °F - 41.0 °F 37% 29.91 in 10.0 mi East 4.6 mph - N/A   Mostly Cloudy
1:15 AM 68.0 °F - 39.2 °F 35% 29.90 in 10.0 mi SSE 5.8 mph - N/A   Partly Cloudy
1:35 AM 68.0 °F - 39.2 °F 35% 29.90 in 8.0 mi South 3.5 mph - N/A   Partly Cloudy
1:55 AM 66.2 °F - 39.2 °F 37% 29.88 in 10.0 mi Calm Calm - N/A   Clear
2:15 AM 66.2 °F - 37.4 °F 35% 29.87 in 10.0 mi Calm Calm - N/A   Clear
2:35 AM 66.2 °F - 37.4 °F 35% 29.87 in 10.0 mi Calm Calm - N/A   Clear
2:55 AM 64.4 °F - 35.6 °F 34% 29.86 in 10.0 mi Calm Calm - N/A   Clear
3:15 AM 64.4 °F - 35.6 °F 34% 29.86 in 10.0 mi NE 3.5 mph - N/A   Clear
3:35 AM 64.4 °F - 37.4 °F 37% 29.86 in 9.0 mi Calm Calm - N/A   Clear
3:55 AM 62.6 °F - 37.4 °F 39% 29.86 in 7.0 mi Calm Calm - N/A   Clear
4:15 AM 64.4 °F - 37.4 °F 37% 29.86 in 7.0 mi East 4.6 mph - N/A   Clear
4:35 AM 62.6 °F - 39.2 °F 42% 29.86 in 4.0 mi ENE 4.6 mph - N/A   Clear
4:55 AM 62.6 °F - 39.2 °F 42% 29.86 in 0.2 mi ENE 4.6 mph - N/A   Unknown
5:15 AM 62.6 °F - 39.2 °F 42% 29.87 in 0.2 mi ENE 4.6 mph - N/A   Unknown
5:35 AM 62.6 °F - 41.0 °F 45% 29.87 in 0.2 mi ENE 3.5 mph - N/A   Mostly Cloudy
5:55 AM 62.6 °F - 41.0 °F 45% 29.87 in 0.2 mi ENE 3.5 mph - N/A   Mostly Cloudy
6:15 AM 62.6 °F - 41.0 °F 45% 29.87 in 0.2 mi ENE 3.5 mph - N/A   Unknown
6:35 AM 62.6 °F - 42.8 °F 48% 29.87 in 0.2 mi Calm Calm - N/A   Unknown
6:55 AM 64.4 °F - 42.8 °F 45% 29.86 in 2.0 mi ESE 3.5 mph - N/A   Clear
7:15 AM 66.2 °F - 44.6 °F 46% 29.86 in 5.0 mi SSE 4.6 mph - N/A   Clear
7:35 AM 68.0 °F - 44.6 °F 43% 29.87 in 7.0 mi South 5.8 mph - N/A   Clear
7:55 AM 69.8 °F - 41.0 °F 35% 29.87 in 10.0 mi SSE 4.6 mph - N/A   Clear
8:15 AM 71.6 °F - 39.2 °F 31% 29.88 in 9.0 mi SSE 5.8 mph - N/A   Clear
8:35 AM 71.6 °F - 41.0 °F 33% 29.88 in 10.0 mi SSE 3.5 mph - N/A   Clear
8:55 AM 73.4 °F - 39.2 °F 29% 29.88 in 10.0 mi SSW 4.6 mph - N/A   Clear
9:15 AM 75.2 °F - 39.2 °F 27% 29.87 in 10.0 mi South 4.6 mph - N/A   Partly Cloudy
9:35 AM - - - N/A% - - North - - N/A   Unknown
9:55 AM - - - N/A% - - North - - N/A   Unknown
10:15 AM - - - N/A% - - North - - N/A   Unknown
10:35 AM - - - N/A% - - North - - N/A   Unknown
10:55 AM - - - N/A% - - North - - N/A   Unknown
11:15 AM - - - N/A% - - North - - N/A   Unknown
11:35 AM - - - N/A% - - North - - N/A   Unknown
11:55 AM - - - N/A% - - North - - N/A   Unknown
12:15 PM - - - N/A% - - North - - N/A   Unknown
12:35 PM - - - N/A% - - North - - N/A   Unknown
12:55 PM - - - N/A% - - North - - N/A   Unknown
1:15 PM - - - N/A% - - North - - N/A   Unknown
1:35 PM - - - N/A% - - North - - N/A   Unknown
1:55 PM - - - N/A% - - North - - N/A   Unknown
2:15 PM - - - N/A% - - North - - N/A   Unknown
2:35 PM - - - N/A% - - North - - N/A   Unknown
2:55 PM - - - N/A% - - North - - N/A   Unknown
3:15 PM - - - N/A% - - North - - N/A   Unknown
3:35 PM - - - N/A% - - North - - N/A   Unknown
3:55 PM - - - N/A% - - North - - N/A   Unknown
4:15 PM - - - N/A% - - North - - N/A   Unknown
4:35 PM - - - N/A% - - North - - N/A   Unknown
4:55 PM - - - N/A% 29.77 in - SW 12.7 mph - N/A   Unknown
5:15 PM 86.0 °F 89.4 °F 68.0 °F 55% 29.79 in 10.0 mi SW 12.7 mph - N/A   Mostly Cloudy
5:35 PM 86.0 °F 88.2 °F 66.2 °F 51% 29.78 in 10.0 mi SW 12.7 mph - N/A   Scattered Clouds
5:55 PM 86.0 °F 87.3 °F 64.4 °F 48% 29.77 in 10.0 mi SW 10.4 mph - N/A   Clear
6:15 PM 84.2 °F 85.6 °F 64.4 °F 51% 29.77 in 10.0 mi SW 9.2 mph - N/A   Clear
6:35 PM 82.4 °F 83.9 °F 64.4 °F 54% 29.77 in 10.0 mi SW 8.1 mph - N/A   Clear
6:55 PM 82.4 °F 82.9 °F 60.8 °F 48% 29.77 in 10.0 mi SW 6.9 mph - N/A   Clear
7:15 PM 82.4 °F 83.4 °F 62.6 °F 51% 29.78 in 10.0 mi SW 5.8 mph - N/A   Clear
7:35 PM 80.6 °F 81.8 °F 62.6 °F 54% 29.77 in 10.0 mi SSW 6.9 mph - N/A   Clear
7:55 PM 80.6 °F 80.8 °F 57.2 °F 45% 29.76 in 10.0 mi SSW 6.9 mph - N/A   Clear
8:15 PM 78.8 °F - 57.2 °F 47% 29.77 in 10.0 mi SSW 6.9 mph - N/A   Clear
8:35 PM 78.8 °F - 48.2 °F 34% 29.78 in 10.0 mi SSW 5.8 mph - N/A   Scattered Clouds
8:55 PM 78.8 °F - 6.8 °F 6% 29.79 in 10.0 mi WSW 8.1 mph - N/A   Mostly Cloudy
9:15 PM 69.8 °F - 8.6 °F 9% 29.84 in 9.0 mi NW 26.5 mph 50.6 mph 0.02 in Thunderstorm Mostly Cloudy
9:35 PM 68.0 °F - 12.2 °F 12% 29.83 in 10.0 mi NNW 20.7 mph 27.6 mph 0.10 in Thunderstorm Overcast
9:55 PM 68.0 °F - 21.2 °F 17% 29.85 in 10.0 mi NW 18.4 mph 24.2 mph 0.13 in Thunderstorm Mostly Cloudy
10:15 PM 66.2 °F - 26.6 °F 23% 29.85 in 10.0 mi NNW 11.5 mph - 0.04 in   Overcast
10:35 PM 66.2 °F - 28.4 °F 24% 29.82 in 10.0 mi North 6.9 mph - 0.06 in   Mostly Cloudy
10:55 PM 66.2 °F - 33.8 °F 30% 29.83 in 10.0 mi South 10.4 mph - 0.06 in   Clear
11:15 PM 66.2 °F - 35.6 °F 32% 29.79 in 10.0 mi South 11.5 mph - N/A   Clear
11:35 PM 66.2 °F - 37.4 °F 35% 29.80 in 10.0 mi SSW 9.2 mph - N/A   Clear
11:55 PM 66.2 °F - 33.8 °F 30% 29.81 in 10.0 mi NW 6.9 mph - N/A   Partly Cloudy